Погода в Узунколе

Казахстан     54°02′42″N   65°20′36″E
темп.,
°C
ветер,
м/с
пор.,
м/с
влажн.,
%
обл.,
%
осадки,
мм/ч
давл.,
гПа
погр.,
м
2 марта, вт
вт200:00−18зюз229776 0.1 101826
03:00−19юз239898 0.1 101830
06:00−19юз2310098 0.1 101727
09:00−18ююз349889 0.1 101695
12:00−16ююз359688 0.1 1015214
15:00−14ююз469597 0.0 1014270
18:00−14ююз499598 0.0 1013271
21:00−14ююз61294100 0.0 1012324
3 марта, ср
ср300:00−18ююз7139585 0.0 1011268
03:00−18ююз8139595 0.0 1010311
06:00−15ююз8159497 0.1 1009487
09:00−11ююз81593100 0.3 1008602
12:00−8ююз91593100 0.8 1007757
15:00−4юз91594100 0.7 1006975
18:00−3юз91494100 1.4 1006962
21:00−3ююз91594100 0.6 1005776
4 марта, чт
чт400:00−2юз81595100 1.4 1004731
03:00−2ююз81496100 1.1 1002687
06:00−1ююз71397100 2.4 1002652
09:00−1юз71297100 1.3 1000633
12:00−1юз71097100 2.2 1001641
15:00−1з6996100 1.4 1001643
18:00−5з6109299 1.6 1002377
21:00−8зюз5109487 0.1 1005273
5 марта, пт
пт500:00−12зюз489144 0.1 1008126
03:00−13юз510910 0.0 1009171
06:00−12ююз7149210 0.0 1009384
09:00−9юз91892100 0.1 1008649
12:00−4юз121995100 1.1 10061015
15:00−2юз121990100 0.8 10061244
18:00−1юз121991100 1.3 10061203
21:00−1юз111892100 1.3 10071078
6 марта, сб
сб600:00−1зюз101787100 1.3 1008902
03:00−2зюз81596100 0.4 1008792
06:00−3зсз61096100 1.9 1011522
09:00−10зсз349042 0.1 101352
12:00−9з368831 0.1 1015210
15:00−7зюз348987 0.0 1016242
18:00−9ю339192 0.0 101547
21:00−8ююв489298 0.0 1013164